SCP
0 0 0 0 0 0 0 0 0 0 -0 -0 -0 -0 -0 -0 0 0 0 0 0 0 -0 0 0 0 -0 -0 -0 0 0 0 0 0 0 0 0 0 0 0 0 0 0
0 0 0 0 0 0 0 0 -0 -0 -0 0 -0 -0 -0 -0 -0 0 0 0 0 -0 -0 0 -0 0 0 0 0 -0 0 0 0 0 0 0 0 0 0 0 0 0 0
0 0 0 0 0 0 -0 -0 0 0 -0 -0 -0 -0 -0 -0 -0 -0 -0 0 0 0 0 0 0 0 -0 0 0 0 0 0 0 0 0 0 0 0 0 0 0 0 0
0 -0 0 -0 0 -0 -0 -0 0 -0 0 0 0 -0 -0 -0 0 0 0 0 0 0 0 0 0 0 0 0 0 0 0 -0 0 0 0 0 0 0 0 0 0 0 0
-0 -0 -0 0 0 -0 -0 -0 -0 -0 -0 -0 -0 -0 -0 0 0 0 0 0 -0 0 0 0 0 0 0 0 0 0 0 0 0 0 0 0 0 0 0 0 0 0 0
-0 -0 -0 0 -0 -0 -0 -0 0 -0 -0 -0 -0 -0 0 0 0 -0 -0 0 0 0 0 0 0 0 0 -0 0 0 0 0 0 0 0 0 0 0 0 0 0 0 0
-0 -0 -0 -0 -0 -0 -0 -0 -0 -0 -0 -0 -0 0 -0 0 0 0 -0 -0 -0 0 0 0 0 0 0 0 -0 0 0 0 0 -0 0 0 -0 -0 -0 -0 -0 -0 -0
-0 -0 -0 -0 -0 -0 -0 -0 -0 -0 -0 -0 0 -0 0 0 0 0 -0 0 0 0 0 0 0 0 0 0 0 -0 0 0 0 0 0 -0 -0 -0 -0 -0 -0 -0 -0
-0 -0 -0 -0 -0 0 -0 -0 -0 0 0 -0 0 -0 0 0 0 0 -0 0 -0 0 0 0 0 -0 -0 -0 0 0 0 0 0 0 0 -0 -0 -0 -0 -0 0 -0 -0
-0 -0 -0 -0 -0 0 0 -0 -0 -0 0 -0 -0 0 0 0 0 0 0 0 0 0 0 0 -0 0 -0 0 0 0 0 0 0 0 0 -0 -0 -0 0 -0 -0 0 -0
-0 -0 -0 -0 -0 -0 0 0 0 -0 -0 -0 -0 -0 0 0 0 0 0 0 0 0 0 0 -0 0 0 0 0 0 0 0 -0 -0 -0 -0 -0 -0 -0 -0 -0 -0 -0
-0 -0 -0 -0 -0 -0 0 0 0 0 0 0 -0 0 0 0 0 0 0 0 -0 0 -0 -0 -0 -0 -0 0 0 -0 -0 -0 -0 -0 -0 -0 -0 -0 -0 -0 0 -0 -0
-0 -0 -0 -0 -0 -0 -0 0 0 0 0 0 0 0 0 0 0 0 0 0 0 0 -0 -0 -0 0 -0 0 -0 -0 -0 -0 -0 -0 -0 -0 -0 -0 0 0 -0 0 -0
-0 -0 -0 -0 -0 -0 0 -0 0 0 0 0 0 0 0 0 -0 -0 -0 0 0 -0 0 0 0 0 0 -0 -0 -0 -0 -0 -0 -0 -0 -0 -0 0 -0 0 0 0 0
-0 -0 -0 -0 -0 -0 0 -0 0 0 0 0 0 0 0 0 0 0 0 0 0 0 0 0 0 0 0 -0 -0 -0 -0 -0 -0 -0 0 0 -0 -0 -0 -0 -0 0 0
-0 -0 -0 -0 0 0 0 0 -0 0 -0 0 0 0 0 0 0 0 0 0 0 0 0 0 0 0 0 -0 -0 -0 -0 -0 0 0 0 -0 -0 -0 -0 -0 0 0 0
-0 -0 -0 0 0 0 0 0 0 0 0 0 0 0 -0 -0 -0 0 -0 0 -0 -0 -0 0 -0 -0 -0 -0 -0 0 -0 0 -0 -0 -0 -0 -0 -0 -0 0 0 0 0
-0 -0 -0 -0 -0 0 0 0 0 0 0 0 -0 -0 -0 -0 -0 -0 -0 -0 0 -0 -0 -0 -0 -0 -0 -0 -0 -0 0 -0 0 -0 -0 -0 0 0 0 0 0 0 0
-0 -0 -0 -0 0 -0 0 0 0 -0 0 -0 -0 -0 -0 -0 -0 -0 -0 -0 -0 0 0 0 0 -0 0 0 -0 -0 -0 -0 -0 0 0 0 0 0 0 0 0 0 0
-0 -0 -0 0 0 -0 0 0 0 0 0 0 0 0 0 -0 -0 -0 -0 -0 -0 -0 0 0 0 -0 -0 -0 -0 -0 -0 0 0 0 0 0 0 0 0 0 0 0 0
0 0 0 -0 0 0 0 0 0 0 0 0 0 0 -0 0 0 -0 -0 -0 -0 -0 -0 -0 0 0 -0 0 0 0 0 0 0 0 0 0 0 0 0 0 0 0 0
0 0 0 0 0 0 0 0 0 0 0 0 0 0 -0 0 0 0 0 0 -0 -0 0 -0 -0 -0 -0 0 0 0 0 0 0 0 0 0 0 0 0 0 0 0 0
0 0 0 0 0 0 0 0 0 0 0 0 0 0 0 0 0 0 0 0 0 0 0 -0 -0 0 0 0 0 0 0 0 0 0 0 0 0 0 0 0 0 0 0
0 0 0 0 0 0 0 0 0 0 0 0 0 0 0 0 0 0 0 0 0 0 0 0 0 0 0 0 0 0 0 0 0 0 0 0 0 0 0 0 0 0 0
0 0 0 0 0 0 0 0 0 0 0 0 0 0 0 0 0 0 0 0 0 0 0 0 0 0 0 0 0 0 0 0 0 0 0 0 0 0 0 0 0 0 0
1 1 0 1 0 0 0 0 0 0 0 0 0 0 0 0 0 0 0 0 0 0 0 0 0 0 0 0 0 0 0 0 0 0 0 0 0 0 0 0 0 0 0
Wind_Speed_500mb
27 22 17 9 9 7 6 16 13 20 7 8 8 9 8 6 5 7 11 10 9 5 7 5 7 9 8 18 37 39 38 42 49 36 36 33 43 52 82 80 86 88 63
26 21 14 10 14 14 8 16 9 22 13 13 7 9 6 1 2 8 5 7 6 11 9 9 5 16 16 29 35 35 38 27 42 61 56 54 65 82 95 93 81 68 61
27 23 14 16 11 7 15 18 22 18 16 12 7 9 7 7 5 10 8 6 6 6 7 9 15 17 23 29 32 29 29 35 41 61 73 88 94 93 86 81 78 66 57
28 23 13 11 5 11 12 26 23 16 16 15 9 10 8 8 7 8 8 15 9 6 4 10 13 11 17 18 22 27 31 48 72 87 83 85 86 91 74 77 68 60 58
28 21 12 12 12 11 12 25 27 20 16 19 15 7 9 10 9 7 10 12 9 9 12 11 15 14 13 22 31 33 35 77 99 89 89 85 80 77 75 71 69 61 51
27 22 10 20 17 15 13 24 28 26 23 12 9 9 18 5 13 16 17 16 12 13 15 17 20 19 22 28 31 31 44 96 100 96 87 84 82 79 69 60 57 63 56
28 23 16 27 20 12 15 20 24 27 29 20 16 11 12 14 21 23 20 16 16 13 21 24 25 25 28 34 37 40 69 88 88 96 88 78 70 64 69 66 62 58 55
30 22 20 27 19 19 17 20 17 21 21 23 20 17 24 21 22 24 21 18 16 23 27 22 27 29 31 35 50 57 78 83 82 79 66 70 58 62 55 47 53 43 42
30 23 34 24 22 20 18 20 19 18 19 22 26 16 23 20 20 23 23 19 24 27 26 24 29 30 27 36 53 67 75 84 64 63 59 66 65 59 53 53 46 48 47
30 31 32 29 20 23 13 17 17 12 12 22 30 22 23 17 18 24 24 20 27 29 20 17 25 29 30 35 44 65 69 73 66 60 56 61 47 48 58 39 44 43 43
32 32 27 24 28 21 14 21 20 17 17 23 23 23 18 17 17 24 26 23 24 23 29 36 31 33 35 39 45 52 59 62 69 67 69 64 53 54 50 41 36 22 31
36 35 38 36 26 20 15 26 24 18 23 20 23 21 17 16 19 29 30 31 34 31 42 46 44 38 35 37 44 61 58 68 77 68 57 57 57 52 44 39 45 34 32
41 40 39 34 31 25 20 22 22 22 17 20 23 19 18 18 26 33 38 43 38 30 49 49 42 37 32 33 48 53 62 66 71 59 55 51 50 43 45 42 36 28 27
47 46 39 41 32 21 31 20 17 22 25 21 24 23 20 19 34 37 51 44 42 34 42 39 37 36 33 42 52 57 55 60 54 47 44 39 41 47 41 36 37 37 35
51 50 46 43 39 31 29 29 23 20 22 29 21 21 26 22 33 44 52 48 41 45 43 42 41 38 50 56 55 48 43 35 39 36 36 41 42 43 41 39 42 41 44
56 53 50 45 44 38 38 35 28 25 18 21 30 17 16 17 31 46 40 39 42 44 42 46 39 40 50 59 51 48 43 44 40 43 45 47 47 47 46 43 41 43 44
61 56 51 47 47 44 42 39 39 35 32 23 30 20 19 22 19 42 43 38 36 39 35 34 34 36 35 44 50 37 34 48 42 49 46 45 40 39 44 44 42 41 39
64 58 55 55 50 48 47 44 40 44 41 41 35 33 25 27 22 27 43 45 42 41 37 35 39 38 43 40 39 44 42 42 56 45 48 46 43 46 50 52 47 50 46
67 62 59 54 49 45 49 47 45 42 40 42 50 45 38 34 32 31 42 48 50 50 49 44 38 39 42 45 47 50 49 52 52 57 48 50 50 55 55 58 57 52 49
66 62 62 52 52 51 51 51 49 49 46 49 52 59 58 54 51 51 53 55 51 49 52 50 41 39 46 49 48 52 55 54 55 56 58 62 57 57 59 58 56 55 53
67 64 60 55 53 54 53 54 52 51 54 55 58 52 61 69 66 63 63 64 63 54 48 44 49 47 42 49 50 55 57 54 58 63 64 65 64 61 60 61 58 59 55
68 60 68 66 53 56 58 56 55 55 53 53 58 64 50 42 64 70 70 70 68 67 60 54 53 51 53 54 53 55 57 61 63 62 64 62 64 65 61 61 62 57 54
69 66 66 71 69 54 60 60 58 58 58 57 54 59 62 62 58 54 59 66 68 71 74 70 68 62 61 61 63 64 65 67 65 64 67 69 69 65 61 63 62 60 59
73 64 67 72 68 66 61 68 65 63 62 60 60 62 64 62 65 65 59 52 58 59 55 56 66 78 67 66 66 65 70 70 70 70 66 67 68 67 65 61 62 63 61
60 69 62 68 77 66 64 67 72 65 68 65 64 66 66 67 66 68 66 63 60 66 69 66 61 58 58 80 71 70 69 69 70 68 69 64 65 66 65 63 64 63 71
36 46 66 52 68 74 71 64 73 78 69 74 72 70 71 71 71 70 69 64 69 71 71 73 76 73 68 63 60 77 75 75 74 69 67 68 67 60 65 67 64 71 76
Wind_Direction_500mb
170 171 184 196 188 225 222 178 170 146 168 149 121 120 125 150 165 162 182 216 209 234 249 191 275 252 177 157 160 167 163 179 159 155 157 153 158 163 161 152 150 149 145
165 176 196 160 202 232 176 166 153 148 139 127 101 82 78 232 325 152 150 153 248 204 131 129 184 129 132 149 151 149 157 162 157 147 152 155 164 162 155 151 148 147 143
166 180 175 180 219 181 146 150 129 134 149 149 159 129 188 232 205 146 203 189 153 178 188 162 159 155 141 142 143 136 153 154 167 157 149 144 141 148 143 140 141 148 149
168 177 184 189 165 147 168 150 138 152 157 160 179 173 213 216 138 133 115 113 115 117 176 148 160 147 159 162 163 162 155 164 156 145 147 144 144 151 148 150 143 145 149
174 181 187 167 155 131 140 157 139 157 151 159 170 208 150 127 151 121 112 127 138 145 143 138 145 150 143 163 156 157 158 151 144 139 143 147 150 151 148 150 151 156 152
176 171 150 160 151 137 156 151 153 156 159 171 183 151 107 195 132 109 119 115 133 135 143 138 128 121 119 138 155 157 161 155 153 147 152 154 154 158 156 157 156 150 142
170 159 147 166 151 146 137 146 159 167 170 167 151 144 162 137 116 112 116 107 120 119 126 130 132 123 122 136 153 153 160 158 157 153 154 157 151 153 157 153 149 154 154
168 157 157 166 147 149 156 151 152 171 171 166 137 147 134 117 117 117 103 101 126 128 120 122 132 132 135 138 165 161 161 161 160 159 155 151 151 147 149 147 152 153 153
168 167 158 148 154 151 169 162 168 165 168 158 152 167 148 130 118 118 106 105 116 121 121 127 134 136 133 134 160 161 160 162 166 158 148 147 141 149 145 147 160 162 157
167 164 167 158 167 166 163 162 157 167 182 172 169 162 164 154 142 129 120 131 124 128 133 137 135 132 139 145 160 165 166 163 159 157 156 157 156 153 159 161 166 170 171
165 161 162 136 157 161 142 144 127 117 122 155 170 176 170 165 157 150 132 142 145 134 126 138 132 129 125 149 154 164 163 162 158 156 159 161 160 162 167 168 169 183 179
166 164 158 152 157 166 149 154 143 120 113 126 139 157 174 181 170 164 148 144 139 133 131 131 128 122 121 137 154 154 153 157 164 164 159 166 168 171 174 177 190 195 215
170 168 170 160 179 160 158 153 143 136 141 140 137 139 141 154 156 155 143 142 141 152 136 123 123 127 126 134 151 156 152 152 164 162 165 170 175 174 185 192 202 214 212
173 173 174 164 178 167 158 165 144 159 166 152 151 160 138 137 151 156 151 146 150 151 153 150 140 134 133 133 146 157 158 160 162 165 176 179 178 185 198 206 208 212 214
176 178 180 175 179 172 163 169 180 197 205 180 164 143 148 157 163 159 163 164 157 152 147 148 150 147 143 143 145 146 154 167 172 168 165 183 193 202 215 223 219 224 228
179 180 183 184 182 181 184 179 183 195 194 149 170 155 142 138 155 149 152 167 163 160 154 150 144 155 159 162 162 163 165 186 183 186 189 201 209 218 220 216 218 222 227
184 185 188 188 189 188 190 194 193 188 197 185 180 174 175 184 154 161 153 161 165 164 162 157 165 173 176 181 177 174 185 190 191 202 202 213 219 208 206 222 219 225 228
192 192 192 190 194 193 194 195 200 203 198 197 192 199 195 188 186 187 174 173 180 185 177 192 189 192 195 199 199 196 197 208 195 203 213 220 215 212 211 223 228 224 232
198 195 194 198 198 196 198 198 198 203 203 202 204 202 200 197 199 198 201 198 197 198 195 203 214 210 208 209 210 212 213 212 216 209 213 222 227 214 220 227 232 237 233
204 199 200 202 198 201 200 200 204 202 201 199 214 211 205 206 204 204 205 206 208 215 214 209 208 220 221 218 217 220 220 221 223 231 233 228 232 237 231 229 237 233 233
198 203 207 197 204 203 202 205 206 207 204 202 209 226 220 217 215 215 215 214 212 209 222 225 219 212 225 227 227 226 226 227 229 230 236 237 237 231 237 235 234 238 236
197 204 207 208 205 208 207 208 209 210 211 209 207 220 232 226 227 227 228 227 226 222 211 220 228 226 223 227 228 231 231 233 232 234 233 236 238 235 235 239 235 237 239
200 203 209 214 209 213 213 210 211 212 214 215 212 217 226 227 229 233 237 240 238 235 230 221 219 228 231 230 233 233 233 232 232 235 236 237 236 237 238 238 238 236 234
202 207 210 214 216 213 217 214 213 215 215 216 215 221 227 228 231 236 241 247 243 244 241 238 234 229 225 232 233 236 238 239 237 236 239 239 238 239 241 239 242 239 236
211 211 217 217 212 220 216 220 215 215 217 217 219 219 227 232 231 234 238 241 240 235 239 248 251 248 243 232 234 238 240 243 241 241 237 239 242 238 236 237 238 241 240
233 220 221 230 222 216 219 220 222 217 218 221 218 219 222 232 237 237 237 236 232 230 235 238 242 248 253 255 247 237 237 243 245 246 243 241 236 241 241 239 236 237 237
Wind_Speed_850mb
27 22 17 9 9 7 6 16 13 20 7 8 8 9 8 6 5 7 11 10 9 5 7 5 7 9 8 18 37 39 38 42 49 36 36 33 43 52 82 80 86 88 63
26 21 14 10 14 14 8 16 9 22 13 13 7 9 6 1 2 8 5 7 6 11 9 9 5 16 16 29 35 35 38 27 42 61 56 54 65 82 95 93 81 68 61
27 23 14 16 11 7 15 18 22 18 16 12 7 9 7 7 5 10 8 6 6 6 7 9 15 17 23 29 32 29 29 35 41 61 73 88 94 93 86 81 78 66 57
28 23 13 11 5 11 12 26 23 16 16 15 9 10 8 8 7 8 8 15 9 6 4 10 13 11 17 18 22 27 31 48 72 87 83 85 86 91 74 77 68 60 58
28 21 12 12 12 11 12 25 27 20 16 19 15 7 9 10 9 7 10 12 9 9 12 11 15 14 13 22 31 33 35 77 99 89 89 85 80 77 75 71 69 61 51
27 22 10 20 17 15 13 24 28 26 23 12 9 9 18 5 13 16 17 16 12 13 15 17 20 19 22 28 31 31 44 96 100 96 87 84 82 79 69 60 57 63 56
28 23 16 27 20 12 15 20 24 27 29 20 16 11 12 14 21 23 20 16 16 13 21 24 25 25 28 34 37 40 69 88 88 96 88 78 70 64 69 66 62 58 55
30 22 20 27 19 19 17 20 17 21 21 23 20 17 24 21 22 24 21 18 16 23 27 22 27 29 31 35 50 57 78 83 82 79 66 70 58 62 55 47 53 43 42
30 23 34 24 22 20 18 20 19 18 19 22 26 16 23 20 20 23 23 19 24 27 26 24 29 30 27 36 53 67 75 84 64 63 59 66 65 59 53 53 46 48 47
30 31 32 29 20 23 13 17 17 12 12 22 30 22 23 17 18 24 24 20 27 29 20 17 25 29 30 35 44 65 69 73 66 60 56 61 47 48 58 39 44 43 43
32 32 27 24 28 21 14 21 20 17 17 23 23 23 18 17 17 24 26 23 24 23 29 36 31 33 35 39 45 52 59 62 69 67 69 64 53 54 50 41 36 22 31
36 35 38 36 26 20 15 26 24 18 23 20 23 21 17 16 19 29 30 31 34 31 42 46 44 38 35 37 44 61 58 68 77 68 57 57 57 52 44 39 45 34 32
41 40 39 34 31 25 20 22 22 22 17 20 23 19 18 18 26 33 38 43 38 30 49 49 42 37 32 33 48 53 62 66 71 59 55 51 50 43 45 42 36 28 27
47 46 39 41 32 21 31 20 17 22 25 21 24 23 20 19 34 37 51 44 42 34 42 39 37 36 33 42 52 57 55 60 54 47 44 39 41 47 41 36 37 37 35
51 50 46 43 39 31 29 29 23 20 22 29 21 21 26 22 33 44 52 48 41 45 43 42 41 38 50 56 55 48 43 35 39 36 36 41 42 43 41 39 42 41 44
56 53 50 45 44 38 38 35 28 25 18 21 30 17 16 17 31 46 40 39 42 44 42 46 39 40 50 59 51 48 43 44 40 43 45 47 47 47 46 43 41 43 44
61 56 51 47 47 44 42 39 39 35 32 23 30 20 19 22 19 42 43 38 36 39 35 34 34 36 35 44 50 37 34 48 42 49 46 45 40 39 44 44 42 41 39
64 58 55 55 50 48 47 44 40 44 41 41 35 33 25 27 22 27 43 45 42 41 37 35 39 38 43 40 39 44 42 42 56 45 48 46 43 46 50 52 47 50 46
67 62 59 54 49 45 49 47 45 42 40 42 50 45 38 34 32 31 42 48 50 50 49 44 38 39 42 45 47 50 49 52 52 57 48 50 50 55 55 58 57 52 49
66 62 62 52 52 51 51 51 49 49 46 49 52 59 58 54 51 51 53 55 51 49 52 50 41 39 46 49 48 52 55 54 55 56 58 62 57 57 59 58 56 55 53
67 64 60 55 53 54 53 54 52 51 54 55 58 52 61 69 66 63 63 64 63 54 48 44 49 47 42 49 50 55 57 54 58 63 64 65 64 61 60 61 58 59 55
68 60 68 66 53 56 58 56 55 55 53 53 58 64 50 42 64 70 70 70 68 67 60 54 53 51 53 54 53 55 57 61 63 62 64 62 64 65 61 61 62 57 54
69 66 66 71 69 54 60 60 58 58 58 57 54 59 62 62 58 54 59 66 68 71 74 70 68 62 61 61 63 64 65 67 65 64 67 69 69 65 61 63 62 60 59
73 64 67 72 68 66 61 68 65 63 62 60 60 62 64 62 65 65 59 52 58 59 55 56 66 78 67 66 66 65 70 70 70 70 66 67 68 67 65 61 62 63 61
60 69 62 68 77 66 64 67 72 65 68 65 64 66 66 67 66 68 66 63 60 66 69 66 61 58 58 80 71 70 69 69 70 68 69 64 65 66 65 63 64 63 71
36 46 66 52 68 74 71 64 73 78 69 74 72 70 71 71 71 70 69 64 69 71 71 73 76 73 68 63 60 77 75 75 74 69 67 68 67 60 65 67 64 71 76
Wind_Direction_850mb
170 171 184 196 188 225 222 178 170 146 168 149 121 120 125 150 165 162 182 216 209 234 249 191 275 252 177 157 160 167 163 179 159 155 157 153 158 163 161 152 150 149 145
165 176 196 160 202 232 176 166 153 148 139 127 101 82 78 232 325 152 150 153 248 204 131 129 184 129 132 149 151 149 157 162 157 147 152 155 164 162 155 151 148 147 143
166 180 175 180 219 181 146 150 129 134 149 149 159 129 188 232 205 146 203 189 153 178 188 162 159 155 141 142 143 136 153 154 167 157 149 144 141 148 143 140 141 148 149
168 177 184 189 165 147 168 150 138 152 157 160 179 173 213 216 138 133 115 113 115 117 176 148 160 147 159 162 163 162 155 164 156 145 147 144 144 151 148 150 143 145 149
174 181 187 167 155 131 140 157 139 157 151 159 170 208 150 127 151 121 112 127 138 145 143 138 145 150 143 163 156 157 158 151 144 139 143 147 150 151 148 150 151 156 152
176 171 150 160 151 137 156 151 153 156 159 171 183 151 107 195 132 109 119 115 133 135 143 138 128 121 119 138 155 157 161 155 153 147 152 154 154 158 156 157 156 150 142
170 159 147 166 151 146 137 146 159 167 170 167 151 144 162 137 116 112 116 107 120 119 126 130 132 123 122 136 153 153 160 158 157 153 154 157 151 153 157 153 149 154 154
168 157 157 166 147 149 156 151 152 171 171 166 137 147 134 117 117 117 103 101 126 128 120 122 132 132 135 138 165 161 161 161 160 159 155 151 151 147 149 147 152 153 153
168 167 158 148 154 151 169 162 168 165 168 158 152 167 148 130 118 118 106 105 116 121 121 127 134 136 133 134 160 161 160 162 166 158 148 147 141 149 145 147 160 162 157
167 164 167 158 167 166 163 162 157 167 182 172 169 162 164 154 142 129 120 131 124 128 133 137 135 132 139 145 160 165 166 163 159 157 156 157 156 153 159 161 166 170 171
165 161 162 136 157 161 142 144 127 117 122 155 170 176 170 165 157 150 132 142 145 134 126 138 132 129 125 149 154 164 163 162 158 156 159 161 160 162 167 168 169 183 179
166 164 158 152 157 166 149 154 143 120 113 126 139 157 174 181 170 164 148 144 139 133 131 131 128 122 121 137 154 154 153 157 164 164 159 166 168 171 174 177 190 195 215
170 168 170 160 179 160 158 153 143 136 141 140 137 139 141 154 156 155 143 142 141 152 136 123 123 127 126 134 151 156 152 152 164 162 165 170 175 174 185 192 202 214 212
173 173 174 164 178 167 158 165 144 159 166 152 151 160 138 137 151 156 151 146 150 151 153 150 140 134 133 133 146 157 158 160 162 165 176 179 178 185 198 206 208 212 214
176 178 180 175 179 172 163 169 180 197 205 180 164 143 148 157 163 159 163 164 157 152 147 148 150 147 143 143 145 146 154 167 172 168 165 183 193 202 215 223 219 224 228
179 180 183 184 182 181 184 179 183 195 194 149 170 155 142 138 155 149 152 167 163 160 154 150 144 155 159 162 162 163 165 186 183 186 189 201 209 218 220 216 218 222 227
184 185 188 188 189 188 190 194 193 188 197 185 180 174 175 184 154 161 153 161 165 164 162 157 165 173 176 181 177 174 185 190 191 202 202 213 219 208 206 222 219 225 228
192 192 192 190 194 193 194 195 200 203 198 197 192 199 195 188 186 187 174 173 180 185 177 192 189 192 195 199 199 196 197 208 195 203 213 220 215 212 211 223 228 224 232
198 195 194 198 198 196 198 198 198 203 203 202 204 202 200 197 199 198 201 198 197 198 195 203 214 210 208 209 210 212 213 212 216 209 213 222 227 214 220 227 232 237 233
204 199 200 202 198 201 200 200 204 202 201 199 214 211 205 206 204 204 205 206 208 215 214 209 208 220 221 218 217 220 220 221 223 231 233 228 232 237 231 229 237 233 233
198 203 207 197 204 203 202 205 206 207 204 202 209 226 220 217 215 215 215 214 212 209 222 225 219 212 225 227 227 226 226 227 229 230 236 237 237 231 237 235 234 238 236
197 204 207 208 205 208 207 208 209 210 211 209 207 220 232 226 227 227 228 227 226 222 211 220 228 226 223 227 228 231 231 233 232 234 233 236 238 235 235 239 235 237 239
200 203 209 214 209 213 213 210 211 212 214 215 212 217 226 227 229 233 237 240 238 235 230 221 219 228 231 230 233 233 233 232 232 235 236 237 236 237 238 238 238 236 234
202 207 210 214 216 213 217 214 213 215 215 216 215 221 227 228 231 236 241 247 243 244 241 238 234 229 225 232 233 236 238 239 237 236 239 239 238 239 241 239 242 239 236
211 211 217 217 212 220 216 220 215 215 217 217 219 219 227 232 231 234 238 241 240 235 239 248 251 248 243 232 234 238 240 243 241 241 237 239 242 238 236 237 238 241 240
233 220 221 230 222 216 219 220 222 217 218 221 218 219 222 232 237 237 237 236 232 230 235 238 242 248 253 255 247 237 237 243 245 246 243 241 236 241 241 239 236 237 237